#timestamp,LO_Frequency,Hit,StdDev 
1532566815.2,286047002.6,N
1532566835.1,286047002.4,N
1532566836.0,286047002.4,N
1532566855.8,286047001.9,N
1532566875.7,286047002.4,N
1532566895.5,286047002.3,N
1532566915.3,286047002.5,N
1532566935.2,286047001.3,N
1532566955.0,286047001.6,N
1532566955.9,286047001.6,N
1532566975.8,286047002.1,N
1532566995.6,286047002.1,N
1532567015.4,286047002.6,N
1532567035.3,286047002.1,N
1532567055.1,286047004.3,Y
1532567075.9,286047000.0,P
1532567095.7,286047000.8,N
1532567115.5,286047000.7,N
1532567135.4,286047000.4,N
1532567155.2,286047000.9,N
1532567175.1,286047000.7,N
1532567176.0,286047000.7,N
1532567195.8,286047001.0,N
1532567215.6,286047000.5,N
1532567235.5,286046999.7,N
1532567255.3,286047002.4,Y
1532567275.1,286046999.8,P
1532567295.9,286047000.8,N
1532567315.7,286047000.9,N
1532567365.6,286046999.9,E
1532567375.5,286047000.2,N
1532567395.3,286047002.4,P
1532567415.2,286047002.5,N
1532567435.0,286047002.5,N
1532567435.9,286047002.5,N
1532567455.8,286046999.9,N
1532567475.6,286047000.4,N
1532567495.4,286047000.5,N
1532567515.3,286047000.8,N
1532567535.1,286047000.3,N
1532567555.8,286047000.6,N
1532567575.7,286047000.7,N
1532567595.5,286047000.9,N
1532567615.4,286047001.0,N
1532567635.2,286047002.8,Y
1532567655.0,286046998.5,P
1532567655.9,286046998.5,N
1532567675.8,286047001.1,N
1532567695.6,286047000.7,N
1532567715.5,286046998.5,N
1532567735.3,286046998.5,N
1532567755.1,286047000.8,N
1532567775.9,286046999.9,N
1532567795.7,286046999.8,N
1532567815.5,286047000.0,N
1532567835.4,286046998.1,N
1532567855.2,286046998.4,N
1532567875.1,286046998.1,N
1532567876.0,286046998.1,N
1532567895.8,286046998.6,N
1532567915.6,286046998.1,N
1532567935.5,286047001.1,N
1532567955.3,286046999.7,N
1532567975.1,286047002.3,N
1532567995.9,286047002.7,N
1532568015.7,286047000.3,N
1532568035.6,286047002.7,N
1532568055.4,286047002.1,N
1532568075.2,286047001.7,N
1532568095.1,286047001.6,N
1532568096.0,286047001.6,N
1532568115.8,286047001.5,N
1532568135.7,286047001.5,N
1532568155.5,286047001.9,N
1532568175.3,286047002.5,N
1532568195.2,286047002.2,N
1532568215.0,286047001.3,N
1532568215.9,286047001.3,N
1532568235.8,286047001.6,N
1532568255.6,286047001.7,N
1532568275.4,286047004.2,N
1532568295.3,286047004.1,N
1532568315.1,286047004.0,N
1532568335.8,286047001.9,N
1532568355.7,286047002.0,N
1532568375.5,286047002.6,N
1532568395.4,286047002.0,N
1532568415.2,286047001.8,N
1532568435.0,286047004.3,N
1532568435.9,286047004.3,Y
1532568455.8,286047002.5,P
1532568475.6,286047002.3,P
1532568495.4,286047002.6,P
1532568515.3,286047002.1,Y
1532568535.1,286047001.2,P
1532568555.9,286046998.3,P
1532568575.7,286046998.8,N
1532568595.5,286046999.1,N
1532568615.4,286046999.1,N
1532568635.2,286046999.0,N
1532568655.0,286046999.1,N
1532568655.9,286046999.1,N
1532568675.8,286046998.8,N
1532568695.6,286046999.3,N
1532568715.5,286046998.8,N
1532568735.3,286046999.0,N
1532568755.1,286046999.2,N
1532568775.9,286046999.5,N
1532568795.7,286046998.2,N
1532568815.5,286046998.6,N
1532568835.4,286046996.5,Y
1532568855.2,286046998.8,P
1532568875.1,286046998.4,P
1532568895.9,286046998.3,P
1532568915.7,286047000.7,N
1532568935.6,286047000.7,N
1532568955.4,286047000.9,N
1532568975.2,286047001.2,N
1532568995.1,286046998.8,N
1532568996.0,286046998.8,N
1532569015.8,286046998.8,N
1532569035.7,286046998.2,N
1532569055.5,286047000.7,N
1532569075.3,286047002.8,N
1532569095.2,286047000.9,N
1532569115.0,286047000.8,N
1532569115.9,286047000.8,N
1532569135.8,286047000.6,N
1532569155.6,286047000.3,N
1532569175.4,286047000.4,N
1532569195.3,286047000.8,N
1532569215.1,286047000.5,N
1532569235.9,286047000.4,N
1532569255.7,286047000.7,N
1532569275.5,286047000.4,N
1532569295.4,286047000.8,N
1532569315.2,286046998.1,N
1532569335.0,286047001.2,N
1532569335.9,286047001.2,N
1532569355.8,286046998.5,N
1532569375.6,286046998.5,N
1532569395.5,286046998.7,N
1532569415.3,286047000.8,N
1532569435.1,286047000.5,N
1532569455.9,286047000.6,N
1532569475.7,286047000.8,N
1532569495.5,286047001.0,N
1532569515.4,286047000.8,N
1532569535.2,286047001.0,N
1532569555.1,286046998.7,N
1532569556.0,286046998.7,N
1532569575.8,286047001.0,N
1532569595.7,286046998.2,N
1532569615.5,286046998.5,N
1532569635.3,286046998.7,N
1532569655.2,286046998.5,N
1532569675.0,286047001.0,N
1532569675.9,286047001.0,N
1532569695.8,286046999.7,N
1532569715.6,286047000.2,N
1532569735.4,286047000.0,N
1532569755.3,286046999.9,N
1532569775.1,286047000.0,N
1532569795.8,286047002.7,N
1532569815.7,286047002.7,N
1532569835.5,286046999.9,N
1532569855.4,286047000.4,N
1532569875.2,286047000.4,N
1532569895.0,286047002.1,N
1532569895.9,286047002.1,N
1532569915.8,286047001.5,N
1532569935.6,286047001.7,N
1532569955.4,286047002.5,N
1532569975.3,286047001.3,N
1532569995.1,286047001.7,N
1532570015.9,286047001.8,N
1532570035.7,286047001.7,N
1532570055.5,286047001.8,N
1532570075.4,286047001.6,N
1532570095.2,286047001.9,N
1532570115.1,286047002.2,N
1532570116.0,286047002.2,N
1532570135.8,286047002.1,N
1532570155.6,286047002.8,N
1532570175.5,286046999.8,N
1532570195.3,286047002.8,N
1532570215.2,286047002.4,N
1532570235.9,286046999.7,N
1532570255.7,286047000.4,N
1532570275.6,286047000.7,N
1532570295.4,286046998.3,N
1532570315.2,286047001.1,N
1532570335.1,286046998.7,N
1532570336.0,286046998.7,N
1532570355.8,286046998.3,N
1532570375.7,286046998.3,N
1532570395.5,286046998.9,N
